Tracking 27086 objects as of 22-Mar-2023
HD Live streaming from Space Station
objects crossing your sky now

STARLINK-5691

Track STARLINK-5691 now!
10-day predictions
STARLINK-5691 is classified as:


NORAD ID: 55478
Int'l Code: 2023-015AF
Perigee: 361.6 km
Apogee: 362.7 km
Inclination: 43.0 °
Period: 91.6 minutes
Semi major axis: 6733 km
RCS: Unknown
Launch date: February 2, 2023
Source: United States (US)
Launch site: AIR FORCE EASTERN TEST RANGE (AFETR)
Your satellite tracking list
Your tracking list is empty




NASA's NSSDC Master Catalog

Two Line Element Set (TLE):
1 55478U 23015AF  23081.40595315  .00001847  00000-0  17525-4 0  9990
2 55478  43.0000  98.7585 0000821 221.8648 138.2157 15.71350354  7729
Source of the keplerian elements: AFSPC